TimeEDT,TemperatureF,Dew PointF,Humidity,Sea Level PressureIn,VisibilityMPH,Wind Direction,Wind SpeedMPH,Gust SpeedMPH,PrecipitationIn,Events,Conditions,WindDirDegrees,DateUTC
12:53 AM,57.0,52.0,83,29.80,10.0,Calm,Calm,-,N/A,,Clear,0,2013-06-13 04:53:00
1:53 AM,53.1,51.1,93,29.79,10.0,Calm,Calm,-,N/A,,Clear,0,2013-06-13 05:53:00
2:53 AM,51.1,50.0,96,29.79,10.0,Calm,Calm,-,N/A,,Clear,0,2013-06-13 06:53:00
3:53 AM,51.1,50.0,96,29.79,10.0,SW,3.5,-,N/A,,Clear,220,2013-06-13 07:53:00
4:53 AM,52.0,50.0,93,29.80,10.0,Calm,Calm,-,N/A,,Clear,0,2013-06-13 08:53:00
5:53 AM,52.0,50.0,93,29.81,8.0,Calm,Calm,-,N/A,,Clear,0,2013-06-13 09:53:00
6:53 AM,59.0,55.0,87,29.83,10.0,Calm,Calm,-,N/A,,Clear,0,2013-06-13 10:53:00
7:53 AM,64.0,55.9,75,29.81,10.0,Calm,Calm,-,N/A,,Clear,0,2013-06-13 11:53:00
8:53 AM,64.9,54.0,68,29.80,10.0,Calm,Calm,-,N/A,,Partly Cloudy,0,2013-06-13 12:53:00
9:53 AM,64.9,55.0,70,29.79,10.0,Calm,Calm,-,N/A,,Overcast,0,2013-06-13 13:53:00
10:53 AM,66.0,52.0,60,29.78,10.0,SSE,5.8,-,0.00,,Overcast,150,2013-06-13 14:53:00
11:53 AM,64.9,53.1,65,29.78,10.0,SSE,4.6,-,0.00,Rain,Light Rain,150,2013-06-13 15:53:00
12:53 PM,63.0,55.0,75,29.78,8.0,Calm,Calm,-,0.02,Rain,Light Rain,0,2013-06-13 16:53:00
1:53 PM,62.1,57.0,84,29.74,8.0,ESE,9.2,-,0.03,Rain,Light Rain,110,2013-06-13 17:53:00
2:51 PM,60.8,55.4,82,29.75,10.0,ESE,9.2,17.3,0.01,,Overcast,110,2013-06-13 18:51:00
2:53 PM,60.1,55.9,86,29.75,10.0,ESE,9.2,17.3,0.01,,Overcast,120,2013-06-13 18:53:00
3:30 PM,60.8,55.4,82,29.75,10.0,East,5.8,-,0.00,,Overcast,100,2013-06-13 19:30:00
3:37 PM,60.8,55.4,82,29.74,10.0,East,5.8,-,0.00,,Overcast,90,2013-06-13 19:37:00
3:53 PM,60.1,55.0,83,29.73,10.0,East,6.9,-,0.00,,Overcast,90,2013-06-13 19:53:00
4:53 PM,61.0,54.0,78,29.71,10.0,East,10.4,-,N/A,,Overcast,80,2013-06-13 20:53:00
5:53 PM,61.0,55.0,81,29.69,10.0,East,6.9,-,0.00,,Overcast,90,2013-06-13 21:53:00
6:53 PM,59.0,53.1,81,29.68,10.0,East,10.4,-,N/A,,Overcast,80,2013-06-13 22:53:00
7:53 PM,57.9,53.1,84,29.66,10.0,ENE,11.5,-,N/A,,Overcast,70,2013-06-13 23:53:00
8:53 PM,57.0,53.1,87,29.68,10.0,NE,6.9,-,N/A,,Overcast,50,2013-06-14 00:53:00
9:53 PM,55.9,53.1,90,29.66,10.0,ENE,13.8,-,0.00,Rain,Light Rain,60,2013-06-14 01:53:00
10:53 PM,55.0,53.1,93,29.63,6.0,NE,13.8,21.9,0.01,Rain,Light Rain,50,2013-06-14 02:53:00
11:36 PM,55.4,53.6,94,29.61,5.0,NE,13.8,21.9,0.08,Rain,Rain,50,2013-06-14 03:36:00
11:53 PM,54.0,53.1,97,29.61,2.5,NE,12.7,19.6,0.21,Rain,Heavy Rain,50,2013-06-14 03:53:00